This is the latest recevied weather packets stored in our database for station/object WX5HOT. If no packets are shown the sender has not sent any weather packets the latest 10 day(s).
| Time | Temp. | Humidity | Pressure | Rain* | Wind** | Luminosity | Snow |
|---|---|---|---|---|---|---|---|
| 1777721034 | 11.11° C | 52% | 1069.1 hPa | 0 mm | - | 4 W/m² | - |
| 1777720731 | 11.11° C | 54% | 1068.7 hPa | 0 mm | - | 2 W/m² | - |
| 1777720428 | 11.11° C | 55% | 1068.6 hPa | 0 mm | - | 1 W/m² | - |
| 1777720126 | 11.11° C | 58% | 1068.5 hPa | 0 mm | - | 0 W/m² | - |
| 1777719823 | 11.11° C | 60% | 1068.5 hPa | 0 mm | - | 0 W/m² | - |
| 1777719520 | 11.11° C | 62% | 1068.7 hPa | 0 mm | - | 0 W/m² | - |
| 1777719217 | 11.11° C | 63% | 1068.8 hPa | 0 mm | - | 0 W/m² | - |
| 1777718915 | 11.11° C | 65% | 1068.6 hPa | 0 mm | - | 0 W/m² | - |
| 1777718612 | 11.11° C | 67% | 1068.5 hPa | 0 mm | - | 0 W/m² | - |
| 1777718309 | 11.11° C | 72% | 1068.4 hPa | 0 mm | - | 0 W/m² | - |
| 1777718007 | 11.11° C | 71% | 1068.4 hPa | 0 mm | - | 0 W/m² | - |
| 1777717704 | 11.11° C | 74% | 1068.3 hPa | 0 mm | - | 0 W/m² | - |
| 1777717400 | 11.11° C | 75% | 1068.4 hPa | 0 mm | - | 0 W/m² | - |
| 1777717098 | 11.11° C | 74% | 1068.3 hPa | 0 mm | - | 0 W/m² | - |
| 1777716796 | 11.11° C | 74% | 1068.2 hPa | 0 mm | - | 0 W/m² | - |
| 1777716494 | 11.11° C | 74% | 1068.1 hPa | 0 mm | - | 0 W/m² | - |
| 1777716193 | 11.11° C | 75% | 1068.1 hPa | 0 mm | - | 0 W/m² | - |
| 1777715890 | 11.11° C | 76% | 1068 hPa | 0 mm | - | 0 W/m² | - |
| 1777715588 | 11.11° C | 79% | 1068 hPa | 0 mm | - | 0 W/m² | - |
| 1777715286 | 11.67° C | 79% | 1068.1 hPa | 0 mm | - | 0 W/m² | - |
| 1777714983 | 11.67° C | 76% | 1068 hPa | 0 mm | - | 0 W/m² | - |
| 1777714680 | 11.67° C | 74% | 1068.1 hPa | 0 mm | - | 0 W/m² | - |
| 1777714379 | 11.67° C | 73% | 1068 hPa | 0 mm | - | 0 W/m² | - |
| 1777714076 | 12.22° C | 73% | 1068.4 hPa | 0 mm | - | 0 W/m² | - |
| 1777713774 | 12.22° C | 73% | 1068.1 hPa | 0 mm | - | 0 W/m² | - |
* Rain latest hour (hover to see other rain measurements)
** Current wind speed in m/s (hover to see current wind gust speed)